Theta_e
320 321 323 326 324 327 333 344 344 356 357 357 354 352 349 349 347 345 352 353 349 349 350 343 355 355 350 353 353 350 348 343 345 339 338 340 340 338 335 334 332 331 331
316 319 324 325 329 329 332 341 351 358 358 355 356 357 351 350 347 347 351 352 349 351 348 355 356 356 347 353 352 351 343 342 341 337 336 332 334 335 335 333 331 330 330
316 317 319 325 328 329 332 334 353 355 358 359 357 357 351 348 347 346 344 349 349 348 352 354 355 358 355 349 352 351 348 338 339 337 332 328 325 327 332 333 330 331 329
318 320 317 320 326 326 332 332 350 353 357 359 355 353 347 341 345 345 346 347 350 348 346 353 355 357 349 356 351 349 347 347 342 335 333 333 329 322 321 328 330 331 331
317 318 319 319 321 323 328 333 347 352 355 356 358 355 347 347 348 346 354 350 352 351 344 356 355 354 350 353 349 346 345 342 338 334 332 332 328 329 322 318 321 324 322
317 318 319 320 320 321 322 331 344 352 355 354 355 356 349 347 344 347 347 344 343 345 353 353 357 354 351 346 343 342 339 339 335 330 330 325 323 321 319 316 318 315 316
317 315 318 317 320 318 319 324 342 346 351 352 353 354 353 356 354 351 347 346 343 342 353 356 353 348 348 341 338 337 335 334 331 331 325 324 321 320 317 313 310 308 310
318 315 316 314 316 318 320 320 334 343 347 349 351 354 356 347 346 352 348 346 345 348 355 352 349 343 339 336 336 331 329 331 327 326 325 321 318 316 313 310 308 305 307
318 316 315 314 316 317 322 323 331 337 344 348 350 351 354 352 348 352 356 347 351 351 350 347 341 337 334 332 334 330 328 326 325 323 322 318 314 313 313 311 310 307 304
315 306 316 314 316 318 322 327 335 337 343 345 350 351 349 350 354 355 352 350 352 349 341 339 335 332 330 330 329 323 323 322 319 316 317 317 314 313 312 312 312 312 309
316 316 316 315 316 317 318 337 338 337 345 341 347 349 346 346 351 351 351 352 347 338 334 334 330 327 324 323 321 319 318 316 314 314 313 312 315 312 312 312 312 311 309
317 319 314 314 315 317 323 334 340 340 343 339 345 346 350 347 346 343 344 336 336 331 330 327 323 322 317 320 316 313 311 310 309 309 310 309 310 312 312 311 311 311 311
319 325 314 314 316 319 329 333 338 340 342 338 345 342 334 331 330 328 327 326 326 324 322 322 317 314 313 310 309 309 307 307 308 309 308 307 308 306 307 308 308 309 309
313 320 325 320 321 330 333 333 340 343 342 339 337 331 329 326 325 324 326 323 323 321 317 314 311 308 306 306 306 306 306 307 307 306 304 303 302 302 303 304 305 307 306
309 312 320 325 324 331 336 337 339 338 336 331 327 325 322 322 319 319 318 316 317 314 311 309 307 305 305 305 305 305 305 305 305 305 303 302 301 301 299 302 303 304 304
306 309 316 323 312 321 333 333 331 331 326 323 321 320 318 318 314 310 310 311 310 309 307 305 304 303 304 302 304 306 305 306 305 304 304 303 300 302 303 301 300 300 303
305 307 313 317 324 330 324 319 320 322 319 317 315 314 313 312 311 309 308 309 307 306 305 303 304 303 301 299 301 304 306 305 304 305 302 300 300 299 302 303 306 304 300
305 307 310 313 315 321 325 318 314 315 313 311 310 310 308 308 308 308 306 305 305 303 301 301 301 299 300 298 299 302 305 304 302 300 301 301 298 295 296 302 303 305 306
306 307 310 314 313 313 316 317 312 312 312 309 308 306 306 306 307 306 305 305 302 301 300 302 302 301 300 298 298 302 304 301 299 296 296 298 295 291 292 300 300 301 301
310 307 309 310 311 312 311 309 308 309 308 306 306 306 306 304 305 306 304 304 304 302 304 301 300 299 299 295 295 300 301 301 299 301 296 291 292 291 291 298 298 297 298
307 308 308 307 308 309 308 305 302 302 304 304 304 303 303 302 303 303 304 303 302 302 298 299 300 301 300 296 293 294 302 299 299 298 296 294 291 290 290 291 297 296 295
308 309 306 306 305 306 304 302 299 300 300 300 299 299 301 302 301 301 302 301 299 299 298 299 298 297 296 294 292 292 293 298 299 297 295 295 290 290 291 294 291 292 296
304 308 308 305 303 302 300 298 299 299 299 298 298 298 299 300 301 300 300 300 299 299 299 299 296 294 293 292 292 292 293 294 295 296 291 291 292 292 295 293 293 296 299
302 304 305 303 299 299 298 298 298 298 296 296 297 298 299 299 300 301 301 301 301 300 299 297 295 294 294 294 295 294 295 292 297 292 298 297 294 293 295 299 299 299 299
301 302 302 301 298 297 296 295 296 297 295 295 296 297 298 299 297 296 300 301 301 299 299 298 298 296 293 289 290 293 296 297 292 293 300 299 298 298 298 298 299 298 298
301 300 299 300 299 297 296 295 296 296 295 294 296 296 296 297 295 292 290 289 289 289 289 289 291 288 288 288 288 288 288 289 290 297 297 296 296 296 296 296 297 297 297
Wind_Speed
19 20 19 18 18 16 15 17 18 17 14 13 13 12 12 13 13 12 13 16 14 13 10 8 7 8 7 3 5 4 4 5 1 5 7 6 6 4 4 3 3 5 6
15 18 18 18 17 15 15 17 16 15 15 14 13 12 12 13 13 12 11 13 12 11 10 7 9 9 8 6 5 4 4 3 2 6 6 7 5 7 8 3 2 3 5
14 15 19 18 16 16 15 18 16 16 17 18 13 12 10 9 13 13 13 13 14 14 11 10 10 9 6 8 6 5 4 5 6 3 4 5 5 9 5 7 4 1 5
22 19 15 19 17 17 16 19 16 16 18 19 17 20 13 11 12 13 12 12 14 14 12 11 10 8 8 9 7 4 2 4 3 4 1 4 4 4 5 6 3 5 8
24 23 19 19 22 20 17 17 17 17 18 19 18 15 14 12 11 12 15 13 12 13 15 12 11 10 7 7 8 5 2 2 3 2 1 0 5 4 5 9 8 9 9
25 24 21 21 20 21 22 17 19 17 19 20 20 20 20 14 12 14 14 13 12 11 12 12 10 9 10 9 8 7 6 6 6 4 4 4 4 6 6 8 8 10 9
26 23 17 19 22 23 24 20 19 19 19 21 20 19 18 14 15 15 13 15 13 12 12 12 11 10 10 11 10 9 9 7 7 6 4 4 5 5 6 7 8 9 9
26 18 24 15 21 23 24 24 21 19 19 20 20 17 17 13 13 14 13 13 13 12 16 11 11 13 13 12 12 10 6 9 8 8 6 5 5 5 6 6 8 9 9
29 26 13 12 16 20 22 21 22 19 17 20 18 18 16 16 15 17 12 12 12 12 15 13 13 14 13 13 12 10 11 8 8 7 5 6 6 5 6 6 7 7 8
21 16 32 9 14 18 16 18 15 17 19 16 17 16 17 16 13 14 14 13 12 17 14 15 15 15 14 14 12 9 8 9 8 6 7 6 6 5 5 5 5 7 8
29 29 12 8 12 15 20 16 16 17 16 15 17 16 13 12 13 11 11 14 16 18 15 15 16 16 16 13 13 11 9 13 10 8 6 7 7 7 7 7 7 7 7
22 23 12 12 13 16 19 18 16 15 18 12 17 15 14 12 12 10 14 17 16 16 15 15 16 16 14 13 13 12 10 10 6 11 8 8 6 7 8 7 7 7 8
27 26 3 14 17 15 14 16 14 16 17 14 17 14 13 14 18 15 17 18 19 18 17 17 16 15 14 11 12 11 11 10 8 10 6 9 9 8 8 8 8 8 8
23 25 20 11 15 10 10 10 14 16 14 15 13 16 15 16 16 16 16 18 19 20 17 15 16 15 15 11 10 10 9 10 11 9 9 7 9 9 8 7 8 9 9
23 21 22 13 14 5 11 10 10 12 15 13 14 15 15 14 16 16 18 16 16 15 15 18 15 14 12 10 9 10 8 11 9 7 6 8 8 8 3 6 7 8 9
22 19 17 11 18 18 5 9 7 9 14 16 18 16 18 15 16 17 20 17 17 18 19 18 15 16 9 13 10 7 9 10 6 7 4 6 10 8 3 8 7 4 7
20 18 15 12 1 11 10 13 10 11 14 16 17 17 17 17 16 19 20 19 18 18 18 16 18 17 11 11 14 9 9 9 7 5 6 6 9 11 9 13 5 10 9
18 18 14 11 10 11 12 15 11 5 15 15 15 16 18 17 15 18 19 18 16 17 16 15 14 14 11 12 14 14 10 8 9 8 7 8 9 12 12 10 9 10 8
14 14 14 10 10 11 11 13 10 4 15 17 16 16 19 17 16 17 19 18 18 17 16 15 16 15 11 10 13 9 10 10 10 11 11 8 10 12 15 11 12 11 10
11 11 12 14 9 9 10 16 8 2 11 12 15 15 17 20 16 16 18 16 16 18 15 15 11 13 10 9 7 2 8 9 7 10 9 11 8 11 13 12 12 11 12
13 12 11 9 9 11 14 12 11 10 10 14 13 15 16 18 16 17 16 17 17 17 15 14 12 13 10 10 12 13 8 6 6 6 7 6 4 8 10 12 10 11 12
12 11 8 8 9 9 10 11 14 11 12 14 16 17 16 14 14 18 16 17 16 14 14 13 13 11 11 9 13 15 11 8 7 8 6 3 7 8 8 8 11 14 12
11 10 7 7 8 9 9 12 11 12 14 15 16 16 17 15 16 17 16 13 13 10 11 11 12 11 9 8 10 10 11 12 8 6 3 6 10 10 5 13 13 10 11
11 10 8 7 9 10 12 12 12 13 14 16 16 15 17 18 15 11 10 10 9 10 11 11 11 10 9 8 8 7 6 6 6 8 4 2 4 6 7 9 10 11 11
9 9 7 8 9 11 13 13 14 15 16 15 15 16 15 15 12 10 4 9 10 8 11 11 10 10 9 6 8 10 7 5 4 8 7 9 9 9 10 10 11 11 11
7 7 9 9 9 11 13 15 17 17 16 15 12 11 11 10 11 13 15 24 24 26 25 21 14 12 11 10 11 8 5 5 8 6 8 9 9 10 10 10 11 11 13
Wind_Direction
265 252 249 255 246 232 236 245 236 207 187 187 202 202 202 192 199 193 181 172 187 184 204 184 156 202 203 205 158 185 183 249 89 287 260 218 192 217 281 220 274 328 315
294 272 256 244 246 227 221 250 225 212 190 194 200 200 204 194 200 185 175 171 181 171 192 190 175 191 181 176 180 209 246 206 35 301 301 277 183 196 200 209 279 268 302
283 273 273 244 239 224 224 244 215 218 207 206 188 204 214 193 198 178 168 178 178 178 189 202 178 170 195 175 181 190 232 267 131 341 317 305 334 340 138 167 218 291 308
313 290 252 250 230 230 218 239 219 212 209 201 193 198 207 194 188 181 175 174 178 177 187 193 178 175 206 127 163 164 232 255 159 154 162 347 355 335 320 338 342 217 236
296 283 272 238 239 224 227 210 230 201 212 203 202 193 205 194 183 182 168 169 176 171 186 182 160 184 182 127 115 139 211 156 334 302 294 145 253 161 320 314 332 327 345
298 282 258 251 237 232 220 206 216 204 203 207 201 193 200 202 177 184 157 174 173 175 177 164 164 166 117 138 132 121 97 57 47 54 357 16 358 0 332 325 324 334 333
291 282 277 258 234 228 218 205 200 207 203 206 202 197 200 209 185 172 169 170 173 172 160 158 152 144 131 130 126 116 112 85 80 27 60 39 33 9 345 330 339 327 322
299 293 279 260 243 214 218 201 195 205 197 204 202 198 194 197 193 187 171 178 171 166 151 151 146 135 135 126 118 120 105 102 86 70 26 60 34 12 10 357 336 332 331
303 307 261 256 229 208 212 200 196 195 195 202 198 193 186 199 193 175 190 178 163 130 140 137 135 133 126 125 117 102 102 102 90 74 40 48 42 29 20 357 345 339 322
332 310 283 210 204 202 189 207 173 185 197 196 193 189 185 193 189 169 178 161 141 130 126 125 130 126 113 99 98 100 88 83 73 67 52 16 29 24 24 351 343 331 331
321 312 206 216 188 195 192 159 182 190 188 185 185 184 182 179 156 162 169 125 115 113 122 127 123 119 114 108 99 87 97 93 82 65 45 53 38 12 12 350 4 333 355
305 286 133 170 191 205 182 161 176 193 182 181 177 182 165 115 107 99 111 111 115 110 120 111 112 111 106 105 101 103 87 86 79 66 39 41 38 11 18 345 357 350 330
330 332 132 158 188 192 157 155 183 183 180 174 171 160 126 121 102 111 108 109 111 111 113 119 112 102 92 93 93 84 89 82 62 71 46 39 25 30 14 353 350 353 343
343 338 326 104 250 116 135 166 176 196 171 161 122 129 128 111 115 118 116 117 120 120 118 112 104 99 100 90 95 95 92 91 74 63 55 41 45 28 10 0 0 5 347
349 343 333 8 24 104 128 147 178 175 133 120 125 115 108 116 127 122 110 110 115 110 106 104 95 97 97 100 102 100 112 96 92 84 98 60 36 31 346 347 16 8 360
343 340 348 6 27 311 152 167 171 147 117 117 114 113 119 132 113 107 109 109 111 106 101 99 105 97 98 101 121 107 98 106 104 80 71 91 40 8 289 256 245 276 8
340 339 357 1 125 49 66 74 58 115 110 114 115 118 122 119 127 118 117 118 112 110 108 106 108 107 105 112 102 116 89 83 84 69 35 33 40 7 349 333 326 211 212
341 341 351 26 27 45 66 86 77 80 112 105 107 111 110 111 119 121 112 113 117 110 112 113 122 120 114 106 95 94 106 98 75 63 53 45 27 11 346 318 11 7 27
346 338 347 19 40 51 73 85 82 200 123 117 120 121 114 122 118 116 119 119 114 112 104 108 108 106 110 109 122 133 118 114 108 74 45 40 35 352 341 24 16 12 12
11 353 358 360 27 52 87 67 76 62 94 108 105 118 112 110 116 121 118 118 114 112 110 108 110 105 110 49 39 109 128 130 113 129 106 64 27 325 351 19 17 12 356
355 10 4 33 27 36 71 87 77 58 74 91 98 100 104 108 115 110 107 107 106 106 113 113 111 104 97 55 42 26 129 130 112 98 77 57 310 324 325 340 18 332 318
358 19 21 38 50 55 67 79 97 100 96 98 102 102 105 107 105 104 103 101 106 109 112 117 110 98 85 58 52 48 39 23 85 77 72 79 266 283 308 347 320 308 320
353 8 35 76 76 84 89 86 84 92 97 96 97 99 100 102 102 102 103 105 109 128 128 118 110 110 104 89 68 59 60 56 84 94 144 251 280 271 268 244 278 339 10
3 6 9 86 95 96 95 95 98 100 97 102 107 108 103 101 101 99 107 120 133 129 122 120 117 122 131 133 138 141 137 139 145 198 180 65 318 275 288 21 23 28 9
2 16 38 94 104 105 103 102 105 107 100 99 102 100 99 101 88 58 89 94 61 108 128 125 127 121 96 65 54 55 65 54 25 307 56 48 38 35 30 25 24 28 5
12 34 47 86 99 110 109 106 104 99 105 100 93 93 98 95 93 89 80 61 67 66 65 67 83 79 98 98 77 71 30 319 292 74 53 48 38 36 26 20 23 20 11